Weather History for Prague, Czech Republic

Change the Weather History Date:

Friday, September 9, 2011

  Actual Average Record
Temperature  
Mean Temperature 58 °F -  
Max Temperature 67 °F 63 °F 79 °F (2012)
Min Temperature 50 °F 45 °F 42 °F (2004)
Degree Days  
Heating Degree Days 6    
Growing Degree Days 8 (Base 50)    
Moisture  
Dew Point 53 °F    
Average Humidity 82    
Maximum Humidity 94    
Minimum Humidity 59    
Precipitation  
Precipitation 0.00 in 0.05 in - ()
Sea Level Pressure  
Sea Level Pressure 29.92 in    
Wind  
Wind Speed 12 mph ()    
Max Wind Speed 18 mph    
Max Gust Speed -    
Visibility 6.2 miles    
Events Rain    
Averages and records for this station are not official NWS values.
T = Trace of Precipitation, MM = Missing Value Source: Averaged Metar Reports

Daily Weather History Graph

Daily Weather History Graph

Search for Another Location

Airport:

Trip Planner

Search our weather history database for the weather conditions in past years. The results will help you decide how hot, cold, wet, or windy it might be!

Date:

Astronomy

Sep. 09, 2011 Rise Set
Actual Time 6:29 AM CEST 7:30 PM CEST
Civil Twilight 5:55 AM CEST 8:03 PM CEST
Nautical Twilight 5:16 AM CEST 8:43 PM CEST
Astronomical Twilight 4:33 AM CEST 9:25 PM CEST
Moon 5:58 PM CEST (9/9) 3:16 AM CEST (9/9)
Length of Visible Light 14h 07m
Length of Day
13h 01m
Waxing Gibbous, 92% of the Moon is Illuminated
Sep 9
Waxing Gibbous
Sep 12
Full
Sep 20
Last Quarter
Sep 27
New
Oct 4
First Quarter

Hourly Weather History & Observations

Time (CEST) Temp. Dew Point Humidity Pressure Visibility Wind Dir Wind Speed Gust Speed Precip Events Conditions
12:00 AM 55.4 °F 50.0 °F 82% 29.80 in 6.2 mi WSW 17.3 mph - N/A   Mostly Cloudy
12:30 AM 55.4 °F 50.0 °F 82% 29.83 in 6.2 mi WSW 17.3 mph - N/A   Mostly Cloudy
1:00 AM 55.4 °F 50.0 °F 82% 29.83 in 6.2 mi WSW 17.3 mph - N/A   Scattered Clouds
1:30 AM 55.4 °F 50.0 °F 82% 29.83 in 6.2 mi WSW 18.4 mph - N/A   Mostly Cloudy
2:00 AM 55 °F 50 °F 78% 29.84 in 22 mi West 15.7 mph - -   Partly Cloudy
2:00 AM 55.4 °F 50.0 °F 82% 29.83 in 6.2 mi WSW 15.0 mph - N/A   Mostly Cloudy
2:30 AM 55.4 °F 51.8 °F 88% 29.83 in 6.2 mi WSW 16.1 mph - N/A   Partly Cloudy
3:00 AM 55.4 °F 51.8 °F 88% 29.86 in 6.2 mi West 16.1 mph - N/A Rain Light Rain
3:30 AM 53.6 °F 51.8 °F 94% 29.86 in 6.2 mi West 11.5 mph - N/A Rain Light Rain
4:00 AM 53.6 °F 51.8 °F 94% 29.86 in 6.2 mi West 4.6 mph - N/A   Scattered Clouds
4:30 AM 51.8 °F 50.0 °F 94% 29.86 in 6.2 mi SW 10.4 mph - N/A   Partly Cloudy
5:00 AM 51.8 °F 50.0 °F 94% 29.86 in 6.2 mi WSW 9.2 mph - N/A   Mostly Cloudy
5:30 AM 51.8 °F 50.0 °F 94% 29.89 in 6.2 mi WSW 9.2 mph - N/A   Mostly Cloudy
6:00 AM 51.8 °F 50.0 °F 94% 29.89 in - SW 10.4 mph - N/A   Clear
6:30 AM 51.8 °F 50.0 °F 94% 29.89 in - SW 9.2 mph - N/A   Clear
7:00 AM 53.6 °F 50.0 °F 88% 29.89 in - SW 10.4 mph - N/A   Clear
7:30 AM 53.6 °F 51.8 °F 94% 29.89 in - SW 12.7 mph - N/A   Clear
8:00 AM 54 °F 51 °F 87% 29.91 in 31 mi West 8.9 mph - -   Partly Cloudy
8:00 AM 55.4 °F 51.8 °F 88% 29.92 in - WSW 11.5 mph - N/A   Clear
8:30 AM 55.4 °F 51.8 °F 88% 29.92 in 6.2 mi SW 11.5 mph - N/A   Mostly Cloudy
9:00 AM 55.4 °F 51.8 °F 88% 29.92 in 6.2 mi WSW 11.5 mph - N/A   Mostly Cloudy
9:30 AM 57.2 °F 53.6 °F 88% 29.92 in 6.2 mi WSW 9.2 mph - N/A   Mostly Cloudy
10:00 AM 57.2 °F 53.6 °F 88% 29.95 in 6.2 mi SW 11.5 mph - N/A   Mostly Cloudy
10:30 AM 60.8 °F 53.6 °F 77% 29.92 in 6.2 mi WSW 12.7 mph - N/A   Scattered Clouds
11:00 AM 60.8 °F 53.6 °F 77% 29.95 in 6.2 mi West 12.7 mph - N/A   Scattered Clouds
11:30 AM 60.8 °F 53.6 °F 77% 29.95 in 6.2 mi WSW 10.4 mph - N/A   Scattered Clouds
12:00 PM 62.6 °F 55.4 °F 77% 29.95 in 6.2 mi WSW 12.7 mph - N/A   Scattered Clouds
12:30 PM 64.4 °F 53.6 °F 68% 29.95 in 6.2 mi WSW 12.7 mph - N/A   Scattered Clouds
1:00 PM 64.4 °F 53.6 °F 68% 29.95 in 6.2 mi SW 15.0 mph - N/A   Scattered Clouds
1:30 PM 62.6 °F 53.6 °F 72% 29.95 in 6.2 mi WSW 13.8 mph - N/A   Scattered Clouds
2:00 PM 65 °F 54 °F 59% 29.92 in 47 mi West 11.2 mph - -   Partly Cloudy
2:00 PM 64.4 °F 53.6 °F 68% 29.95 in 6.2 mi WSW 12.7 mph - N/A   Scattered Clouds
2:30 PM 66.2 °F 53.6 °F 64% 29.95 in 6.2 mi WSW 11.5 mph - N/A   Partly Cloudy
3:00 PM 64.4 °F 53.6 °F 68% 29.95 in 6.2 mi WSW 12.7 mph - N/A   Partly Cloudy
3:30 PM 66.2 °F 55.4 °F 68% 29.95 in 6.2 mi WSW 12.7 mph - N/A   Partly Cloudy
4:00 PM 64.4 °F 55.4 °F 73% 29.95 in 6.2 mi WSW 15.0 mph - N/A   Mostly Cloudy
4:30 PM 64.4 °F 53.6 °F 68% 29.95 in 6.2 mi WSW 16.1 mph - N/A   Mostly Cloudy
5:00 PM 64.4 °F 55.4 °F 73% 29.95 in 6.2 mi WSW 15.0 mph - N/A   Mostly Cloudy
5:30 PM 64.4 °F 55.4 °F 73% 29.95 in 6.2 mi WSW 15.0 mph - N/A   Mostly Cloudy
6:00 PM 62.6 °F 55.4 °F 77% 29.95 in 6.2 mi WSW 15.0 mph - N/A   Mostly Cloudy
6:30 PM 62.6 °F 55.4 °F 77% 29.95 in 6.2 mi West 10.4 mph - N/A   Scattered Clouds
7:00 PM 62.6 °F 55.4 °F 77% 29.95 in 6.2 mi WSW 8.1 mph - N/A   Partly Cloudy
7:30 PM 60.8 °F 55.4 °F 82% 29.95 in 6.2 mi WSW 6.9 mph - N/A   Partly Cloudy
8:00 PM 60 °F 55 °F 80% 29.96 in 31 mi SW 4.5 mph - -   Partly Cloudy
8:00 PM 60.8 °F 55.4 °F 82% 29.95 in - SW 6.9 mph - N/A   Clear
8:30 PM 59.0 °F 55.4 °F 88% 29.98 in - SSW 5.8 mph - N/A   Clear
9:00 PM 59.0 °F 55.4 °F 88% 29.98 in - SSW 6.9 mph - N/A   Clear
9:30 PM 59.0 °F 55.4 °F 88% 29.98 in - South 6.9 mph - N/A   Clear
10:00 PM 60.8 °F 57.2 °F 88% 29.98 in - South 6.9 mph - N/A   Clear
10:30 PM 60.8 °F 57.2 °F 88% 29.98 in - South 8.1 mph - N/A   Clear
11:00 PM 60.8 °F 57.2 °F 88% 29.98 in 6.2 mi South 8.1 mph - N/A   Scattered Clouds
11:30 PM 60.8 °F 57.2 °F 88% 29.98 in 6.2 mi SSW 8.1 mph - N/A   Scattered Clouds